TimeEST,TemperatureF,Dew PointF,Humidity,Sea Level PressureIn,VisibilityMPH,Wind Direction,Wind SpeedMPH,Gust SpeedMPH,PrecipitationIn,Events,Conditions,WindDirDegrees,DateUTC
12:15 AM,35.6,33.8,93,29.89,5.0,NNE,34.5,42.6,N/A,,Overcast,30,2013-03-08 05:15:00
12:35 AM,35.6,33.8,93,29.89,5.0,NNE,33.4,42.6,N/A,,Overcast,30,2013-03-08 05:35:00
1:15 AM,35.6,32.0,87,29.88,4.0,NNE,29.9,44.9,N/A,,Overcast,30,2013-03-08 06:15:00
1:35 AM,33.8,33.8,100,29.87,3.0,NNE,27.6,41.4,N/A,,Overcast,30,2013-03-08 06:35:00
1:55 AM,33.8,33.8,100,29.87,2.5,NNE,32.2,42.6,N/A,,Overcast,30,2013-03-08 06:55:00
2:15 AM,33.8,32.0,93,29.86,2.5,NNE,28.8,44.9,N/A,,Overcast,30,2013-03-08 07:15:00
2:35 AM,33.8,30.2,87,29.87,2.5,NNE,34.5,47.2,N/A,,Overcast,30,2013-03-08 07:35:00
2:55 AM,33.8,32.0,93,29.86,2.5,NNE,28.8,43.7,N/A,,Overcast,30,2013-03-08 07:55:00
3:35 AM,33.8,32.0,93,29.85,3.0,NNE,29.9,39.1,N/A,,Overcast,30,2013-03-08 08:35:00
3:55 AM,33.8,33.8,100,29.86,2.5,NNE,31.1,39.1,N/A,,Overcast,30,2013-03-08 08:55:00
4:15 AM,33.8,32.0,93,29.87,2.5,NNE,32.2,42.6,N/A,,Overcast,30,2013-03-08 09:15:00
4:35 AM,33.8,33.8,100,29.87,2.5,NE,33.4,40.3,N/A,,Overcast,40,2013-03-08 09:35:00
4:55 AM,33.8,32.0,93,29.87,2.5,NNE,29.9,42.6,N/A,,Overcast,30,2013-03-08 09:55:00
5:15 AM,33.8,32.0,93,29.88,2.5,NNE,33.4,43.7,N/A,,Overcast,30,2013-03-08 10:15:00
5:35 AM,33.8,33.8,100,29.87,2.5,NE,32.2,42.6,N/A,,Overcast,40,2013-03-08 10:35:00
5:55 AM,33.8,33.8,100,29.87,2.5,NE,29.9,41.4,N/A,,Overcast,40,2013-03-08 10:55:00
6:15 AM,33.8,33.8,100,29.88,3.0,NE,32.2,42.6,N/A,,Overcast,40,2013-03-08 11:15:00
6:35 AM,33.8,32.0,93,29.88,2.0,NNE,32.2,41.4,N/A,,Overcast,30,2013-03-08 11:35:00
6:55 AM,33.8,32.0,93,29.88,1.2,NNE,32.2,44.9,N/A,,Overcast,30,2013-03-08 11:55:00
7:35 AM,33.8,32.0,93,29.88,1.5,NNE,34.5,42.6,N/A,,Overcast,30,2013-03-08 12:35:00
7:55 AM,33.8,32.0,93,29.89,2.0,NNE,29.9,44.9,N/A,,Overcast,30,2013-03-08 12:55:00
8:35 AM,33.8,33.8,100,29.90,3.0,NE,27.6,46.0,N/A,,Overcast,40,2013-03-08 13:35:00
8:55 AM,33.8,33.8,100,29.90,2.0,NNE,32.2,44.9,N/A,,Overcast,30,2013-03-08 13:55:00
9:15 AM,33.8,32.0,93,29.90,2.0,NNE,29.9,44.9,N/A,,Overcast,30,2013-03-08 14:15:00
9:55 AM,33.8,32.0,93,29.90,2.0,NNE,32.2,46.0,N/A,,Overcast,30,2013-03-08 14:55:00
10:15 AM,33.8,32.0,93,29.91,2.0,NNE,31.1,42.6,N/A,,Overcast,30,2013-03-08 15:15:00
10:55 AM,33.8,33.8,100,29.91,1.5,NNE,33.4,42.6,N/A,,Overcast,30,2013-03-08 15:55:00
11:15 AM,33.8,33.8,100,29.92,1.5,NNE,32.2,43.7,N/A,,Overcast,30,2013-03-08 16:15:00
11:35 AM,33.8,33.8,100,29.92,1.8,NNE,33.4,47.2,N/A,,Overcast,30,2013-03-08 16:35:00
11:55 AM,33.8,32.0,93,29.92,2.0,NNE,31.1,43.7,N/A,,Overcast,30,2013-03-08 16:55:00
12:15 PM,33.8,32.0,93,29.92,2.0,NNE,34.5,42.6,N/A,,Overcast,30,2013-03-08 17:15:00
12:35 PM,33.8,33.8,100,29.92,2.5,NNE,34.5,46.0,N/A,,Overcast,30,2013-03-08 17:35:00
1:15 PM,35.6,33.8,93,29.92,4.0,NNE,33.4,46.0,N/A,,Overcast,30,2013-03-08 18:15:00
1:35 PM,35.6,33.8,93,29.93,4.0,NNE,35.7,46.0,N/A,,Overcast,30,2013-03-08 18:35:00
1:55 PM,35.6,33.8,93,29.93,3.0,NNE,36.8,47.2,N/A,,Overcast,30,2013-03-08 18:55:00
2:15 PM,35.6,33.8,93,29.95,3.0,NNE,32.2,47.2,N/A,,Overcast,30,2013-03-08 19:15:00
2:35 PM,35.6,33.8,93,29.95,3.0,NNE,33.4,44.9,N/A,,Overcast,30,2013-03-08 19:35:00
2:55 PM,35.6,35.6,100,29.96,2.5,NNE,33.4,44.9,N/A,,Overcast,30,2013-03-08 19:55:00
3:35 PM,35.6,35.6,100,29.97,3.0,NE,35.7,47.2,N/A,,Overcast,40,2013-03-08 20:35:00
3:55 PM,35.6,35.6,100,29.98,3.0,NE,38.0,44.9,N/A,,Overcast,40,2013-03-08 20:55:00
4:15 PM,37.4,35.6,93,29.98,4.0,NNE,36.8,44.9,N/A,,Overcast,30,2013-03-08 21:15:00
4:35 PM,37.4,35.6,93,29.99,4.0,NE,33.4,48.3,N/A,,Overcast,40,2013-03-08 21:35:00
4:55 PM,37.4,33.8,87,30.00,5.0,NNE,38.0,49.5,N/A,,Overcast,30,2013-03-08 21:55:00
5:15 PM,37.4,33.8,87,30.01,5.0,NE,33.4,48.3,N/A,,Overcast,40,2013-03-08 22:15:00
5:35 PM,37.4,33.8,87,30.01,5.0,NE,31.1,46.0,N/A,,Overcast,40,2013-03-08 22:35:00
6:15 PM,39.2,35.6,87,30.02,10.0,NNE,27.6,43.7,N/A,,Overcast,30,2013-03-08 23:15:00
6:35 PM,42.8,32.0,66,30.03,10.0,NNE,29.9,40.3,N/A,,Overcast,30,2013-03-08 23:35:00
6:55 PM,42.8,30.2,61,30.03,10.0,NNE,32.2,38.0,N/A,,Partly Cloudy,30,2013-03-08 23:55:00
7:15 PM,42.8,30.2,61,30.04,10.0,NNE,31.1,40.3,N/A,,Clear,30,2013-03-09 00:15:00
7:35 PM,42.8,30.2,61,30.04,10.0,NNE,26.5,40.3,N/A,,Clear,30,2013-03-09 00:35:00
7:55 PM,42.8,32.0,66,30.04,10.0,NNE,27.6,36.8,N/A,,Scattered Clouds,30,2013-03-09 00:55:00
8:35 PM,42.8,28.4,57,30.05,10.0,NNE,28.8,39.1,N/A,,Overcast,30,2013-03-09 01:35:00
8:55 PM,42.8,30.2,61,30.06,10.0,NNE,28.8,41.4,N/A,,Overcast,30,2013-03-09 01:55:00
9:15 PM,41.0,30.2,65,30.07,10.0,NNE,34.5,42.6,N/A,,Overcast,30,2013-03-09 02:15:00
9:35 PM,41.0,28.4,61,30.07,10.0,NNE,29.9,38.0,N/A,,Overcast,30,2013-03-09 02:35:00
9:55 PM,41.0,30.2,65,30.07,10.0,NNE,28.8,41.4,N/A,,Mostly Cloudy,30,2013-03-09 02:55:00
10:15 PM,41.0,28.4,61,30.07,10.0,NNE,26.5,36.8,N/A,,Mostly Cloudy,30,2013-03-09 03:15:00
10:35 PM,39.2,30.2,70,30.08,10.0,NNE,32.2,36.8,N/A,,Overcast,30,2013-03-09 03:35:00
10:55 PM,39.2,30.2,70,30.08,10.0,NNE,31.1,38.0,N/A,,Overcast,30,2013-03-09 03:55:00
11:15 PM,39.2,26.6,61,30.08,10.0,NNE,31.1,39.1,N/A,,Overcast,30,2013-03-09 04:15:00
11:35 PM,39.2,28.4,65,30.08,10.0,NNE,31.1,38.0,N/A,,Overcast,30,2013-03-09 04:35:00
11:55 PM,39.2,30.2,70,30.08,10.0,NNE,29.9,41.4,N/A,,Overcast,30,2013-03-09 04:55:00